If you wish to contribute or participate in the discussions about articles you are invited to join SKYbrary as a registered user

 Actions

Alpnach Air Base

From SKYbrary Wiki

LSMA
Airport
ICAO: LSMA
Summary
Name Alpnach Air Base
Region Europe
Territory Switzerland CH.gif
Location Alpnach, Obwalden
Serving Alpnach
Elevation 445.008 m
1,460 ft
1,460 ft445.008 m
Type medium airport
Coordinates 46° 56' 38.00" N, 8° 17' 3.00" E
Runways
Designator Length Width Surface ROPS
1/19 1500 m4,921.26 ft
40 m131.234 ft
ASP /


METAR
Observation LSMA 200350Z AUTO 19004KT 9999NDV NCD 04/01 Q1027 RMK
Station ALPNACH
Date/Time 20 April 2019 03:50:00
Wind direction 190°
Wind speed 04 kts
Lowest cloud amount n/a
Temperature 4°C
Dew point 1°C
Humidity 80%
QNH 1027 hPa
Weather condition n/a

Maps

Terrain

Loading map...

Airport Layout

Loading map...


Accidents & Serious Incidents at or in vicinity of LSMA

None on SKYbrary